[Iaude] MPEC N21: 2024 ME2 [a=2.32,e=0.68,i=22.1,H=23.8]
    mpec at cfa.harvard.edu 
    mpec at cfa.harvard.edu
       
    Tue Jul  2 21:02:46 EDT 2024
    
    
  
M.P.E.C. 2024-N21                                  Issued 2024 July 3, 01:00 UT
     The Minor Planet Electronic Circulars contain information on unusual
         minor planets, routine data on comets and natural satellites,
         and occasional editorial announcements.  They are published
    on behalf of Division F of the International Astronomical Union by the
          Minor Planet Center, Smithsonian Astrophysical Observatory,
                          Cambridge, MA 02138, U.S.A.
			  
             Prepared using the Tamkin Foundation Computer Network
                              MPC at CFA.HARVARD.EDU
            URL https://www.minorplanetcenter.net/    ISSN 1523-6714
                                    2024 ME2                                    
Observations:
     K24M02E  C2024 06 01.39161917 49 00.182+07 53 20.94         21.75GVEN021F52
     K24M02E  C2024 06 01.40278617 48 59.788+07 53 22.04         22.47GVEN021F52
     K24M02E  C2024 06 01.41393017 48 59.448+07 53 22.35         23.28GVEN021F52
     K24M02E  C2024 06 05.53101417 46 45.820+07 50 33.03         22.13GVEN021F51
     K24M02E  C2024 06 05.54774817 46 44.935+07 50 29.62         21.66GVEN021F51
     K24M02E  C2024 06 05.57233317 46 43.634+07 50 25.73         21.82GVEN021F51
     K24M02E  C2024 06 08.37677017 44 23.767+07 37 43.01         22.21GVEN021F51
     K24M02E  C2024 06 08.38356317 44 23.268+07 37 40.50         21.60GVEN021F52
     K24M02E  C2024 06 08.38592617 44 23.083+07 37 39.52         21.73GVEN021F51
     K24M02E  C2024 06 11.50530017 40 30.230+07 07 43.03         20.21GVEN021F52
     K24M02E* C2024 06 26.81659213 41 16.656-33 25 17.11         17.65cVEN021M22
     K24M02E  C2024 06 26.82037013 40 50.995-33 27 39.42         17.91cVEN021M22
     K24M02E  C2024 06 26.82638313 40 10.231-33 31 23.88         17.91cVEN021M22
     K24M02E  C2024 06 26.84053013 38 33.806-33 40 10.09         18.05cVEN021M22
     K24M02E  C2024 06 27.01338713 18 43.86 -35 24 40.2                WEN021X09
     K24M02E  C2024 06 27.01770713 18 12.26 -35 27 06.2                WEN021X09
     K24M02E KB2024 06 27.12045813 05 20.981-36 22 08.09         19.3 VZEN021Y05
     K24M02E KB2024 06 27.12403213 04 54.261-36 23 55.73         19.7 VZEN021Y05
     K24M02E KC2024 06 27.30428912 42 28.454-37 51 23.58         18.0 GVEN021474
     K24M02E KC2024 06 27.30471812 42 25.070-37 51 34.81         17.9 GVEN021474
     K24M02E KC2024 06 27.30557412 42 18.302-37 51 57.24         18.2 GVEN021474
     K24M02E KC2024 06 27.30600312 42 14.909-37 52 08.51         18.0 GVEN021474
     K24M02E KC2024 06 27.30664512 42 09.821-37 52 25.00         18.3 GVEN021474
     K24M02E KC2024 06 27.41987 12 27 12.33 -38 38 58.7                qEN021E23
     K24M02E KC2024 06 27.42565 12 26 25.80 -38 41 04.7          18.2 VqEN021E23
     K24M02E KC2024 06 27.43144 12 25 39.27 -38 43 08.2          18.5 VqEN021E23
     K24M02E KC2024 06 27.46564512 21 02.818-38 53 14.35         17.7 GVEN021474
     K24M02E KC2024 06 27.46607312 20 59.410-38 53 22.52         17.8 GVEN021474
     K24M02E KC2024 06 27.46693212 20 52.529-38 53 39.55         18.0 GVEN021474
     K24M02E KC2024 06 27.46736012 20 49.111-38 53 48.37         18.0 GVEN021474
     K24M02E KC2024 06 27.46779112 20 45.662-38 53 56.65         18.3 GVEN021474
     K24M02E  C2024 06 27.70711 11 49 13.34 -40 02 20.7          19.3 GVEN021M28
     K24M02E  C2024 06 27.70914 11 48 56.85 -40 02 45.5          19.5 GVEN021M28
     K24M02E  C2024 06 27.71115 11 48 39.88 -40 03 09.2          19.4 GVEN021M28
     K24M02E  C2024 06 27.71727 11 47 50.66 -40 04 19.8          19.5 GVEN021M28
     K24M02E  C2024 06 27.71929 11 47 34.69 -40 04 42.1          19.3 GVEN021M28
     K24M02E  C2024 06 27.72130 11 47 18.37 -40 05 04.6          20.1 GVEN021M28
Observer details:
474 Mount John Observatory, Lake Tekapo.  Observers A. C. Gilmore, P. M.
    Kilmartin.  Measurer P. M. Kilmartin.  1.0-m f/7.7 Reflector + CCD.
E23 Arcadia.  Observer A. Hidas.  0.35-m f/1.9 reflector + CCD.
F51 Pan-STARRS 1, Haleakala.  Observers J. Herman, T. Lowe, P. Minguez, A.
    Schultz, I. Smith.  Measurers K. Chambers, T. de Boer, J. Fairlamb, H.
    Gao, M. Huber, C.-C. Lin, E. Magnier, Y. Ramanjooloo, R. Wainscoat, R.
    Weryk.  1.8-m Ritchey-Chretien + CCD.
F52 Pan-STARRS 2, Haleakala.  Observers J. Herman, T. Lowe, P. Minguez, A.
    Schultz, I. Smith.  Measurers K. Chambers, T. de Boer, J. Fairlamb, H.
    Gao, M. Huber, C.-C. Lin, E. Magnier, Y. Ramanjooloo, R. Wainscoat, R.
    Weryk.  1.8-m Ritchey-Chretien + CCD.
M22 ATLAS South Africa, Sutherland.  Observers L. Denneau, R. Siverd, J.
    Tonry, H. Weiland.  Measurers L. Denneau, N. Erasmus, A. Fitzsimmons, J.
    Robinson, R. Siverd, J. Tonry, H. Weiland.  0.5-m Reflector + CCD.
M28 Lesedi Telescope-SAAO Observatory, Sutherland.  Observers N. Erasmus, S.
    Potter, C. van Gend, S. Chandra, H. Worters.  Measurers T. Ngwane, N.
    Erasmus.  1.0-m f/8 Reflector + CCD.
X09 Deep Random Survey, Rio Hurtado.  Observers A. Schnabel, D. Ruhela.
    Measurer S. Deen.  0.43-m reflector + CMOS.
Y05 SONEAR Wykrota-CEAMIG, Serra da Piedade.  Observers C. Jacques, A.
    Caetano, E. Pimentel.  Measurer C. Jacques.  0.45-m f/2.9 reflector + CMO.
Orbital elements:
2024 ME2                                                 Earth MOID = 0.0150 AU
Epoch 2024 Mar. 31.0 TT = JDT 2460400.5                 Veres                   
M 322.94191              (2000.0)            P               Q                  
n   0.27870608     Peri.  251.81293     +0.89467639     +0.24097153             
a   2.3211601      Node    92.88398     -0.10304748     +0.93064973             
e   0.6754706      Incl.   22.12475     -0.43466697     +0.27536123             
P   3.54           H   23.82          G   0.15           U   7                  
Residuals in seconds of arc
240601 F52  0.1+  0.0     240626 M22  0.9-  0.6-    240627 474  0.3-  0.2-
240601 F52  0.3-  0.3+    240627 X09  0.8-  0.6-    240627 474  0.1-  0.1+
240601 F52  0.1+  0.2-    240627 X09  0.1+  0.5+    240627 474  0.4-  0.0
240605 F51  0.2-  0.1+    240627 Y05  2.2+  0.9-    240627 474  0.3-  0.3-
240605 F51  0.1+  0.4-    240627 Y05  1.4+  0.2-    240627 474  0.4-  0.1-
240605 F51  0.3+  0.0     240627 474  0.3-  0.1+    240627 M28  2.3+  1.2+
240608 F51  0.1-  0.0     240627 474  0.3-  0.1+    240627 M28  2.0+  0.4+
240608 F52  0.1-  0.1+    240627 474  0.3-  0.1+    240627 M28  5.7-  0.1+
240608 F51  0.2-  0.0     240627 474  0.3-  0.0     240627 M28  1.3-  0.0
240611 F52  0.2+  0.1+    240627 474  0.5-  0.3+    240627 M28  3.2+  0.6+
240626 M22  0.1+  0.3+    240627 E23  0.2+  0.3+    240627 M28  2.8+  0.7+
240626 M22  0.8-  0.4-    240627 E23  0.3-  0.5-
240626 M22  0.2-  0.1-    240627 E23  0.2+  0.1+
Ephemeris:
2024 ME2                 a,e,i = 2.32, 0.68, 22                  q = 0.7533
Date    TT    R. A. (2000) Decl.     Delta      r    Elong.  Phase     V
2024 06 03    17 48 16.8 +07 54 10   0.2970  1.2714   146.0    26.5    22.9
...
2024 06 18    17 24 04.1 +04 12 34   0.1132  1.1171   151.8    25.4    20.5
...
2024 06 26    14 55 25.6 -24 20 00   0.02968 1.0371   133.5    45.3    18.0
...
2024 07 02    07 29 26.7 -27 04 38   0.06114 0.9796    51.3   125.9    23.0
2024 07 03    07 14 40.2 -24 56 34   0.07204 0.9703    48.3   128.5    23.6
2024 07 04    07 04 08.2 -23 17 49   0.08319 0.9611    46.3   130.2    24.1
...
2024 07 10    06 35 39.6 -18 01 35   0.1526  0.9081    41.6   132.1    25.4
...
2024 07 18    06 24 51.3 -14 35 44   0.2485  0.8457    41.3   127.5    25.9
...
2024 08 02    06 26 39.0 -09 24 46   0.4359  0.7673    44.5   112.1    25.7
M. P. C. Staff               (C) Copyright 2024 MPC           M.P.E.C. 2024-N21
    
    
More information about the Iaude
mailing list